Wetbulb
72.48 74.64 76.10 76.93 77.70 78.35 78.11 76.68 76.96 78.38 78.73 78.68 78.66 78.29 78.43 78.19 77.99 77.83 77.54 78.22 78.27 77.97 77.88 77.86 77.58 77.80 77.74 77.41 77.05 76.81 76.48 76.88 76.73 76.53 76.68 76.73 76.66 76.35 76.12 76.19 76.32 75.90 76.17
73.89 74.57 76.64 76.87 77.28 77.07 77.25 77.75 77.63 77.33 78.70 78.53 78.65 78.67 78.69 78.41 77.55 77.39 78.14 78.73 78.25 78.34 78.02 77.94 77.56 77.31 77.05 76.00 75.95 76.09 75.65 75.90 76.36 76.27 76.18 76.59 76.36 76.36 75.99 76.14 75.77 75.83 75.64
74.62 74.95 76.15 76.84 78.04 77.82 77.77 77.63 77.88 78.44 78.65 78.82 78.72 78.58 78.49 78.38 77.96 78.11 78.08 78.12 77.99 78.03 77.88 77.47 76.81 76.48 75.73 75.02 75.16 75.16 75.35 76.46 76.95 76.44 74.68 74.34 75.49 75.59 75.88 75.55 75.93 74.42 74.59
75.19 75.03 76.10 77.36 77.53 77.98 77.58 77.55 77.58 77.78 78.16 78.96 78.86 78.47 78.12 78.56 78.72 78.29 77.70 77.61 78.32 77.61 77.36 77.50 76.51 75.49 75.32 76.23 76.95 76.15 76.38 76.22 76.54 75.83 74.45 73.49 73.95 75.68 76.35 76.20 75.65 74.61 73.98
75.82 76.70 76.63 78.02 77.59 77.04 77.39 77.75 77.61 78.69 78.80 78.88 78.67 78.36 78.10 78.03 78.17 78.41 78.03 77.58 77.23 77.21 76.43 75.93 75.52 75.21 75.24 76.54 76.27 76.34 76.55 76.15 75.97 75.15 75.12 75.84 73.86 74.30 74.95 75.53 75.70 75.78 74.19
75.95 76.73 77.53 77.91 78.20 77.96 77.99 77.92 78.28 78.87 78.78 78.63 78.43 78.20 78.13 78.41 78.48 77.84 77.75 77.98 77.34 77.36 76.82 75.74 75.80 75.99 76.04 75.92 76.23 76.31 76.23 75.63 74.83 75.01 74.67 74.38 75.62 75.81 75.65 74.62 75.30 75.72 74.49
75.66 76.44 77.05 77.72 78.25 78.31 78.29 78.20 78.25 78.06 78.74 78.72 78.28 77.86 78.20 78.36 77.63 77.09 76.87 76.92 77.05 77.39 77.18 76.77 76.63 76.18 76.28 76.16 76.05 75.65 75.08 74.93 74.64 74.29 74.16 73.31 75.82 75.36 75.39 75.38 75.56 75.55 75.34
76.02 76.60 76.62 77.43 77.53 77.90 77.50 77.38 77.57 77.13 78.31 78.47 78.76 78.52 78.19 78.29 78.26 77.97 77.11 76.81 76.78 77.13 77.47 77.03 76.76 76.48 75.95 75.67 75.07 74.84 74.71 75.32 74.43 73.21 72.67 73.58 74.49 74.77 74.02 74.29 74.67 75.02 74.91
76.52 76.97 77.83 77.00 77.24 77.70 77.66 77.69 77.31 77.60 78.13 78.23 78.37 78.31 77.96 77.51 77.38 77.05 77.05 77.32 76.92 77.17 76.97 76.70 76.18 75.65 75.46 75.35 74.95 74.52 75.71 75.05 74.09 73.80 73.00 74.82 74.82 75.80 75.77 74.76 75.00 74.85 75.12
75.86 76.99 77.49 77.77 77.63 77.65 77.87 77.83 77.87 78.06 77.30 77.28 77.35 77.35 77.27 77.09 76.49 76.59 77.42 77.34 77.10 76.73 76.61 76.47 76.09 76.05 75.96 75.71 74.90 74.41 75.71 75.40 74.83 73.23 74.01 75.57 75.47 75.89 75.38 74.88 73.83 73.69 73.95
74.46 76.46 77.10 77.21 77.75 77.95 77.58 77.21 77.30 76.86 76.68 76.65 76.83 77.04 76.96 76.06 76.32 77.07 76.49 75.97 76.20 76.19 76.57 76.36 76.47 75.96 75.65 75.89 75.20 74.60 75.41 76.68 75.09 74.14 75.00 75.59 75.65 75.79 75.31 75.06 75.23 74.71 73.54
73.17 74.56 76.48 76.74 76.99 77.13 76.14 77.49 77.17 76.30 75.87 76.05 76.26 76.67 76.30 76.57 77.84 77.23 76.74 75.99 76.24 76.36 75.14 76.01 76.10 76.38 75.72 74.89 75.08 74.93 76.02 76.27 75.40 74.36 74.88 75.10 75.62 76.35 76.13 75.29 74.64 74.66 74.18
73.70 74.41 75.63 76.18 76.88 76.82 76.08 76.35 76.04 76.09 75.76 76.12 76.82 76.99 76.66 76.41 77.30 77.17 77.74 76.54 77.13 76.54 76.70 76.05 76.04 75.46 74.78 74.09 74.32 74.42 74.86 75.09 75.11 74.64 75.61 75.40 75.94 76.27 76.67 76.26 75.17 75.08 75.22
72.40 73.64 75.63 76.18 76.30 76.52 76.59 76.20 76.22 76.05 76.43 75.99 76.08 77.43 76.90 75.93 76.32 76.65 76.68 76.52 76.66 76.36 76.53 76.40 75.93 75.95 75.58 74.89 73.98 73.54 74.42 74.85 74.64 75.09 75.87 75.44 75.84 76.25 76.41 76.17 75.81 75.66 76.09
72.07 73.28 74.74 76.27 76.63 76.87 76.59 76.21 76.46 75.82 76.11 76.30 76.93 77.13 76.60 76.05 75.44 76.00 75.76 75.99 75.88 75.87 75.80 77.08 76.17 75.71 75.93 74.99 74.18 73.96 73.76 75.02 74.26 74.60 75.20 74.67 76.03 76.73 76.74 76.31 76.13 75.46 75.01
72.76 73.06 73.78 75.26 76.33 76.78 76.43 76.92 76.53 76.87 77.02 77.02 76.31 76.43 77.39 76.66 76.25 75.68 75.40 74.12 74.83 75.92 76.07 76.59 75.85 74.81 75.07 74.95 74.09 73.96 74.09 75.11 74.64 74.83 75.45 76.02 75.82 77.13 76.95 76.62 76.65 76.43 75.48
73.14 73.77 73.63 74.14 75.48 76.24 76.30 76.46 76.26 76.27 76.54 76.57 76.33 77.26 77.15 77.07 76.52 76.37 75.13 74.25 74.45 76.10 74.99 76.18 76.02 74.97 74.32 74.56 74.13 74.45 74.44 75.35 74.67 74.55 75.49 75.90 75.92 76.85 77.18 76.89 76.91 77.19 77.34
73.80 73.88 74.34 74.54 75.01 75.67 75.91 75.95 75.57 75.59 76.04 75.52 75.62 76.16 76.87 77.05 77.09 76.43 75.27 74.80 75.26 74.63 75.52 74.59 75.05 73.99 73.35 72.25 72.90 73.69 73.91 75.02 74.71 74.82 74.84 75.50 75.18 75.01 76.96 77.13 76.77 76.28 76.74
74.36 74.46 74.69 75.39 75.09 75.33 75.77 75.60 75.73 76.07 75.47 75.39 75.70 75.79 76.48 76.52 76.36 76.14 74.58 74.55 76.11 74.80 75.07 73.52 74.19 74.77 72.96 72.42 72.29 73.12 74.25 74.11 74.33 73.86 74.11 74.67 75.84 76.11 75.93 75.88 76.55 76.32 76.74
74.47 74.68 75.01 75.29 75.43 75.73 75.54 75.25 75.10 74.81 74.93 75.15 74.98 74.79 75.85 75.93 75.94 75.66 75.26 75.54 75.85 74.46 74.02 72.93 72.33 74.78 74.07 72.97 72.42 72.35 73.42 73.84 74.29 74.11 74.14 74.34 74.55 75.64 76.58 76.75 76.29 76.22 76.58
74.16 74.21 74.54 74.44 74.74 74.62 74.12 73.13 73.02 72.75 73.36 73.58 74.65 75.21 75.41 75.78 75.82 75.90 75.43 75.85 76.14 74.87 74.74 73.32 73.91 74.23 73.75 74.13 72.00 72.20 72.74 73.35 73.49 73.36 73.94 73.95 74.12 74.53 75.29 76.24 76.54 76.15 76.15
73.71 74.17 74.45 74.57 75.13 74.40 73.96 73.96 73.62 74.05 74.04 74.30 75.01 75.31 75.29 75.21 75.83 75.56 75.76 75.50 75.93 75.29 75.25 75.22 74.51 72.83 73.06 73.86 70.72 70.46 67.80 69.77 71.32 71.96 72.21 73.16 73.74 74.05 73.90 74.68 75.49 76.17 76.49
73.44 74.01 74.34 74.92 75.25 75.22 75.02 74.51 74.24 74.62 74.24 73.81 74.29 74.76 75.72 75.62 75.72 75.60 76.22 76.18 76.27 75.91 75.56 75.33 75.29 74.09 71.54 72.89 73.02 71.18 66.90 64.84 67.92 70.77 72.04 72.31 72.76 72.82 73.12 74.21 74.32 75.10 76.20
73.41 74.47 75.10 75.25 75.13 75.19 75.57 74.56 74.27 72.74 72.08 73.40 73.52 73.51 74.46 75.86 75.73 75.79 76.72 75.72 76.16 75.57 76.09 76.25 75.61 74.80 74.50 72.08 72.34 72.50 73.30 71.72 66.95 65.72 70.80 71.70 72.75 72.79 73.74 73.57 73.23 74.08 75.40
72.88 73.19 73.87 74.83 75.35 75.54 75.39 75.14 74.28 74.00 74.02 73.91 72.50 73.56 74.74 75.77 76.06 75.63 76.37 75.83 76.00 75.85 76.44 76.24 76.52 74.79 74.67 73.66 72.68 73.25 71.68 71.16 71.51 68.36 66.36 68.67 71.57 72.54 73.48 73.82 73.84 73.90 74.93
74.49 74.83 74.64 74.49 74.44 75.51 75.94 75.67 74.96 74.16 74.31 73.60 74.58 74.68 75.01 75.16 75.46 75.84 75.85 76.30 76.17 76.19 76.27 76.27 76.42 76.07 75.42 74.62 74.73 73.43 73.13 70.22 69.41 68.85 67.61 68.78 69.11 71.33 72.98 73.40 73.66 73.90 74.31
MSLP
1015.24 1015.28 1015.30 1015.19 1015.12 1015.43 1015.69 1016.01 1016.29 1016.42 1016.58 1016.81 1016.95 1017.24 1017.45 1017.53 1017.81 1018.03 1018.17 1018.10 1018.28 1018.41 1018.46 1018.47 1018.71 1018.69 1018.74 1018.88 1018.85 1018.97 1019.16 1019.30 1019.44 1019.61 1019.71 1019.88 1019.97 1020.06 1020.12 1020.19 1020.07 1020.09 1020.70
1014.67 1015.18 1015.38 1015.51 1015.54 1015.81 1016.07 1016.29 1016.56 1016.78 1017.02 1017.13 1017.25 1017.55 1017.71 1017.80 1017.99 1018.09 1018.29 1018.30 1018.41 1018.53 1018.66 1018.73 1018.88 1018.93 1019.04 1019.23 1019.32 1019.26 1019.43 1019.55 1019.65 1019.72 1019.90 1020.05 1020.21 1020.34 1020.45 1020.55 1020.41 1020.75 1020.99
1014.60 1015.38 1015.47 1015.69 1015.82 1016.10 1016.31 1016.57 1016.83 1017.09 1017.30 1017.48 1017.58 1017.75 1017.89 1018.07 1018.18 1018.27 1018.45 1018.55 1018.61 1018.69 1018.84 1018.98 1019.15 1019.21 1019.42 1019.48 1019.66 1019.68 1019.63 1019.79 1019.88 1020.04 1020.18 1019.89 1020.13 1020.60 1020.64 1020.74 1020.87 1021.05 1021.29
1014.65 1015.29 1015.51 1015.94 1016.18 1016.33 1016.67 1016.87 1017.10 1017.34 1017.62 1017.81 1018.00 1018.07 1018.22 1018.25 1018.37 1018.47 1018.71 1018.83 1018.84 1018.94 1019.05 1019.27 1019.43 1019.60 1019.61 1019.75 1019.84 1020.01 1020.01 1020.05 1020.18 1020.29 1019.94 1020.00 1020.22 1020.86 1020.86 1020.96 1021.10 1021.22 1021.42
1015.01 1015.34 1015.79 1016.17 1016.50 1016.61 1016.92 1017.13 1017.38 1017.53 1017.87 1018.10 1018.29 1018.41 1018.54 1018.63 1018.69 1018.79 1018.92 1019.13 1019.21 1019.23 1019.32 1019.57 1019.70 1019.87 1019.94 1020.08 1020.19 1020.28 1020.39 1020.50 1020.54 1020.37 1020.36 1020.35 1020.39 1021.07 1021.23 1021.32 1021.39 1021.41 1021.39
1015.13 1015.49 1016.27 1016.49 1016.68 1016.97 1017.22 1017.46 1017.69 1017.91 1018.18 1018.43 1018.55 1018.69 1018.81 1018.96 1019.06 1019.20 1019.29 1019.44 1019.54 1019.60 1019.67 1019.86 1020.03 1020.14 1020.28 1020.47 1020.56 1020.61 1020.71 1020.79 1020.84 1020.60 1020.69 1020.94 1020.68 1021.31 1021.44 1021.57 1021.62 1021.71 1021.69
1015.45 1015.64 1016.29 1016.79 1017.05 1017.24 1017.45 1017.70 1018.03 1018.21 1018.51 1018.77 1018.96 1019.10 1019.19 1019.30 1019.51 1019.61 1019.75 1019.87 1019.95 1020.00 1020.07 1020.18 1020.21 1020.43 1020.55 1020.76 1020.81 1020.89 1020.89 1020.99 1020.68 1020.74 1020.96 1020.93 1020.98 1021.54 1021.66 1021.76 1021.83 1021.95 1021.99
1015.73 1015.89 1016.51 1017.16 1017.30 1017.60 1017.80 1018.13 1018.35 1018.56 1018.81 1019.04 1019.27 1019.38 1019.50 1019.65 1019.79 1019.91 1020.04 1020.15 1020.25 1020.36 1020.45 1020.54 1020.61 1020.70 1020.89 1020.90 1021.05 1021.01 1021.07 1021.04 1020.97 1020.82 1021.01 1021.10 1021.53 1021.68 1021.79 1021.98 1022.16 1022.22 1022.23
1016.01 1016.29 1016.70 1017.11 1017.54 1017.84 1018.09 1018.38 1018.65 1018.92 1019.14 1019.37 1019.55 1019.72 1019.89 1020.03 1020.21 1020.32 1020.42 1020.42 1020.51 1020.65 1020.78 1020.83 1020.96 1021.06 1021.06 1021.07 1021.24 1021.18 1021.16 1021.21 1020.89 1020.85 1021.01 1021.05 1021.60 1021.71 1021.75 1022.04 1022.20 1022.40 1022.44
1016.46 1016.61 1016.97 1017.26 1017.60 1017.83 1018.16 1018.58 1018.91 1019.19 1019.45 1019.68 1019.85 1020.02 1020.19 1020.31 1020.44 1020.55 1020.64 1020.66 1020.69 1020.96 1021.00 1021.19 1021.22 1021.26 1021.36 1021.31 1021.36 1021.37 1021.26 1021.26 1020.88 1021.03 1021.05 1021.01 1021.65 1021.74 1021.82 1022.04 1022.21 1022.49 1022.68
1016.83 1017.03 1017.24 1017.52 1017.90 1018.27 1018.47 1018.80 1019.16 1019.49 1019.71 1019.91 1020.06 1020.25 1020.42 1020.20 1020.28 1020.45 1020.70 1020.85 1020.97 1021.06 1021.17 1021.28 1021.39 1021.50 1021.54 1021.50 1021.49 1021.45 1021.38 1020.93 1020.92 1020.95 1020.83 1021.43 1021.73 1021.78 1021.86 1022.00 1022.23 1022.45 1022.66
1016.74 1017.08 1017.28 1017.63 1017.96 1018.38 1018.61 1019.07 1019.29 1019.48 1019.65 1019.84 1020.03 1020.24 1020.36 1020.54 1020.59 1020.76 1020.97 1021.14 1021.16 1021.22 1021.33 1021.34 1021.50 1021.57 1021.62 1021.32 1021.13 1021.38 1021.00 1021.09 1021.10 1021.02 1020.84 1021.42 1021.67 1021.76 1021.88 1022.00 1022.14 1022.37 1022.55
1016.74 1017.09 1017.50 1017.63 1017.97 1018.28 1018.60 1019.01 1019.32 1019.47 1019.67 1020.01 1020.29 1020.44 1020.52 1020.72 1020.90 1020.81 1021.05 1020.99 1020.93 1021.14 1021.18 1021.18 1021.49 1021.26 1021.24 1021.49 1021.19 1021.05 1021.06 1021.05 1020.91 1020.87 1020.65 1021.16 1021.45 1021.55 1021.72 1021.94 1022.08 1022.23 1022.46
1016.75 1017.17 1017.61 1017.78 1018.07 1018.26 1018.52 1018.86 1019.18 1019.39 1019.64 1019.85 1020.08 1020.47 1020.63 1020.70 1020.96 1021.08 1021.00 1021.13 1021.28 1021.04 1021.31 1021.47 1021.40 1021.59 1021.28 1021.36 1021.27 1021.06 1021.07 1020.93 1021.00 1020.70 1020.48 1020.85 1021.12 1021.32 1021.51 1021.73 1021.95 1022.08 1022.23
1016.80 1017.22 1017.66 1018.03 1018.29 1018.52 1018.77 1018.78 1019.01 1019.25 1019.52 1019.63 1020.02 1020.23 1020.43 1020.57 1020.78 1020.96 1020.95 1020.97 1020.99 1021.02 1021.13 1021.37 1021.47 1021.35 1021.30 1021.26 1021.14 1021.11 1020.93 1020.74 1020.79 1020.52 1020.24 1020.48 1020.73 1021.04 1021.23 1021.41 1021.63 1021.86 1022.01
1016.77 1017.12 1017.63 1018.08 1018.26 1018.52 1018.70 1019.04 1019.10 1019.23 1019.33 1019.60 1019.66 1019.87 1020.35 1020.42 1020.53 1020.64 1020.77 1021.06 1020.70 1020.70 1020.83 1020.87 1021.07 1021.15 1021.04 1020.98 1020.91 1020.88 1020.92 1020.69 1020.45 1020.34 1019.96 1019.80 1020.36 1020.63 1020.85 1021.08 1021.27 1021.45 1021.67
1016.53 1017.04 1017.50 1017.96 1018.20 1018.47 1018.63 1018.89 1019.04 1019.09 1019.26 1019.36 1019.48 1019.74 1019.93 1020.20 1020.32 1020.48 1020.43 1020.64 1020.63 1020.42 1020.76 1020.67 1020.82 1021.03 1020.93 1020.79 1020.84 1020.70 1020.58 1020.33 1020.04 1020.05 1019.91 1019.76 1019.75 1020.27 1020.49 1020.67 1020.91 1021.11 1021.25
1016.39 1016.88 1017.46 1017.77 1017.95 1018.19 1018.31 1018.52 1018.70 1018.79 1018.94 1019.00 1019.09 1019.25 1019.55 1019.71 1019.88 1019.97 1019.90 1019.91 1020.03 1020.37 1020.21 1020.34 1020.25 1020.51 1020.67 1020.67 1020.51 1020.39 1020.15 1020.05 1019.82 1019.76 1019.65 1019.56 1019.60 1019.47 1019.71 1020.25 1020.44 1020.61 1020.75
1016.13 1016.68 1017.10 1017.42 1017.68 1017.98 1018.15 1018.41 1018.55 1018.67 1018.79 1018.66 1018.72 1018.83 1019.02 1019.25 1019.39 1019.53 1019.36 1019.39 1019.75 1019.75 1019.79 1020.15 1019.90 1020.07 1020.13 1020.25 1020.17 1020.02 1019.89 1019.75 1019.47 1019.13 1019.12 1019.22 1019.31 1019.35 1019.12 1019.27 1019.84 1020.01 1020.15
1015.89 1016.45 1016.85 1017.19 1017.47 1017.72 1017.84 1018.23 1018.32 1018.55 1018.64 1018.69 1018.59 1018.52 1018.76 1018.90 1018.97 1018.98 1018.74 1018.77 1019.03 1019.15 1019.26 1019.73 1019.92 1019.70 1019.76 1019.67 1019.63 1019.38 1019.37 1019.19 1018.94 1018.80 1018.74 1018.75 1018.72 1018.85 1018.85 1018.88 1018.96 1019.07 1019.38
1015.58 1016.05 1016.37 1016.63 1016.89 1017.37 1017.57 1017.81 1017.95 1017.74 1017.94 1018.06 1017.96 1018.04 1017.98 1018.23 1018.51 1018.55 1018.28 1018.14 1018.34 1018.48 1018.51 1019.03 1019.14 1019.16 1019.02 1019.29 1019.39 1018.89 1018.67 1018.61 1018.30 1018.14 1018.13 1018.11 1018.08 1018.27 1018.31 1018.32 1018.47 1018.41 1018.28
1015.10 1015.45 1015.73 1015.93 1016.31 1016.79 1017.03 1017.35 1017.45 1017.39 1017.45 1017.30 1017.21 1017.53 1017.47 1017.44 1017.37 1017.57 1017.66 1017.50 1017.37 1017.63 1017.95 1018.13 1018.31 1018.19 1018.35 1018.67 1018.57 1018.32 1017.80 1017.24 1017.23 1017.28 1017.16 1017.31 1017.36 1017.43 1017.43 1017.63 1017.76 1017.87 1017.96
1014.61 1014.82 1015.04 1015.48 1016.02 1016.43 1016.71 1017.05 1017.16 1017.24 1017.06 1017.06 1016.99 1016.78 1016.55 1016.59 1016.54 1016.60 1016.34 1016.13 1016.41 1016.70 1016.81 1017.07 1017.10 1017.35 1017.35 1017.76 1018.25 1017.93 1017.34 1016.72 1016.72 1016.42 1016.63 1016.58 1016.60 1016.69 1016.59 1016.73 1017.00 1017.18 1017.39
1014.13 1014.40 1014.84 1015.40 1015.82 1016.23 1016.59 1016.69 1016.68 1016.53 1016.27 1016.11 1016.35 1016.35 1016.32 1016.10 1015.92 1015.94 1015.70 1015.29 1015.46 1015.54 1015.80 1015.99 1016.28 1016.38 1016.70 1016.80 1017.44 1017.38 1017.15 1016.92 1016.66 1016.05 1016.22 1016.37 1016.63 1016.68 1016.51 1016.39 1016.52 1016.51 1016.63
1013.98 1014.26 1014.77 1015.27 1015.72 1016.01 1016.28 1016.41 1016.33 1016.27 1016.08 1016.14 1016.48 1016.29 1015.97 1015.51 1015.20 1015.15 1014.86 1014.79 1014.75 1014.90 1014.87 1015.06 1015.19 1015.70 1015.60 1015.83 1016.09 1016.21 1016.55 1016.54 1016.70 1016.53 1015.51 1015.46 1015.59 1015.80 1015.80 1015.93 1015.81 1015.78 1015.87
1014.09 1014.36 1014.73 1015.21 1015.61 1015.75 1016.00 1016.22 1016.35 1016.32 1016.17 1015.94 1015.47 1015.32 1014.98 1014.80 1014.65 1014.45 1014.27 1014.14 1014.07 1014.09 1014.16 1014.23 1014.33 1014.36 1014.77 1014.81 1015.07 1015.09 1015.33 1015.23 1015.19 1015.44 1015.29 1015.12 1014.93 1014.87 1015.01 1015.01 1015.14 1015.00 1014.97
Wind_Speed
10 8 11 14 17 18 18 19 19 18 18 18 18 18 17 16 15 13 12 13 14 14 14 16 15 16 16 15 16 16 15 15 15 14 14 13 14 14 14 13 11 14 14
15 8 13 14 16 19 19 18 18 17 17 17 17 16 15 15 14 13 12 13 14 13 14 14 14 15 14 14 14 15 14 13 13 14 13 13 12 13 13 12 10 13 12
16 12 14 16 16 18 20 19 17 17 16 16 16 15 14 14 13 14 13 13 13 13 14 14 13 14 13 14 14 13 14 11 11 14 9 7 10 10 10 11 13 13 11
15 13 14 14 16 19 18 19 18 15 16 15 13 13 13 13 13 14 13 12 11 13 14 12 13 12 13 12 13 11 11 9 11 10 7 7 9 9 10 11 11 12 11
14 14 15 15 16 18 17 18 17 15 15 14 13 13 12 12 12 13 13 11 11 11 12 11 11 11 12 10 11 10 11 9 9 7 7 6 5 9 8 8 10 11 8
14 13 15 16 17 17 16 16 16 15 15 13 12 13 13 12 12 11 11 10 10 9 12 12 11 12 11 9 8 10 10 7 5 5 5 7 5 8 7 7 7 9 9
14 13 14 15 16 16 16 15 14 14 14 12 11 12 12 12 11 10 9 8 7 7 9 9 11 10 10 7 6 5 1 1 3 4 4 4 6 5 5 4 6 6 6
13 13 13 13 15 16 16 16 15 15 14 14 12 11 11 10 9 9 8 7 6 6 8 8 9 8 6 6 4 2 1 2 6 5 5 5 5 6 6 4 3 4 5
12 11 11 12 13 15 15 16 15 14 13 12 11 9 9 9 7 6 5 6 6 6 6 8 6 5 4 3 2 1 2 3 4 3 5 4 7 6 7 4 3 3 4
10 10 10 10 11 11 12 14 14 12 13 12 10 9 8 6 5 5 3 3 5 5 5 5 5 4 4 4 3 2 3 1 4 5 4 2 4 6 6 6 6 5 5
9 9 10 10 10 9 9 10 11 13 12 11 9 8 7 4 5 4 2 2 2 2 5 4 5 4 5 4 5 4 3 2 4 4 3 7 8 8 7 7 7 6 6
12 11 10 10 10 10 8 9 8 9 8 8 7 7 5 4 2 2 1 2 3 3 1 3 4 5 6 4 4 5 3 2 3 4 4 7 10 11 10 9 9 8 8
12 10 10 9 10 10 8 7 5 5 5 6 7 6 5 3 3 3 2 3 3 1 4 3 3 5 5 4 5 4 4 4 3 4 6 9 12 12 12 11 11 10 10
14 12 11 10 10 10 7 7 7 6 5 5 7 7 5 4 4 4 3 4 4 3 4 3 2 5 6 6 7 6 6 4 4 4 6 8 12 14 13 12 11 11 9
14 13 12 10 10 9 8 7 7 7 7 7 7 7 6 6 5 5 5 5 5 4 5 4 4 5 5 6 7 7 7 7 7 5 5 6 10 12 14 13 12 12 12
14 14 13 13 11 10 9 9 7 7 7 7 7 8 8 7 6 6 6 5 6 6 6 5 4 5 6 6 7 7 8 8 7 7 5 3 9 11 14 14 13 13 13
13 12 13 14 13 13 12 10 8 7 8 7 7 9 10 9 8 8 7 6 7 6 4 6 6 4 6 6 8 8 8 9 7 7 6 4 4 12 14 14 14 14 15
12 14 12 11 13 14 12 10 8 8 8 8 8 8 11 11 11 9 8 8 7 6 5 6 6 6 6 6 7 7 7 8 8 8 7 6 6 7 10 14 14 14 15
13 12 13 13 13 14 13 9 10 10 9 9 9 9 11 12 12 10 9 9 9 7 8 5 7 7 6 6 7 7 8 9 9 8 9 8 8 8 7 9 12 13 15
11 11 11 10 12 12 9 9 8 7 8 8 9 9 11 10 12 11 10 11 9 8 9 6 7 9 8 7 7 8 8 9 9 9 10 10 9 9 9 9 7 9 14
11 12 12 12 13 10 9 8 9 10 9 9 9 12 13 12 12 13 11 11 10 10 11 9 10 11 9 8 7 9 9 10 12 11 10 11 12 11 11 10 7 8 7
10 12 13 14 13 11 9 7 6 5 7 10 9 11 13 13 15 13 14 12 13 11 12 13 12 10 9 8 7 6 8 8 8 11 11 12 14 11 12 13 12 11 10
12 14 13 13 11 11 11 7 6 6 7 7 9 9 12 14 14 14 15 14 13 13 10 13 12 14 11 9 11 7 5 6 5 5 8 10 12 11 12 12 13 12 12
11 11 11 8 9 8 9 9 12 10 11 10 8 8 10 12 14 15 16 15 15 13 13 11 12 12 12 10 7 11 12 11 8 7 4 4 6 9 11 9 10 11 12
7 8 6 5 6 6 8 10 9 11 10 8 7 11 11 11 13 15 14 15 13 12 13 14 12 14 12 11 11 8 11 11 12 12 12 9 8 7 7 7 9 9 10
6 6 6 6 4 3 5 7 9 11 11 10 12 11 9 8 8 12 14 12 14 13 13 13 15 16 14 13 11 12 10 8 10 11 12 13 13 11 10 9 9 9 10
Wind_Direction
146 182 160 129 126 128 122 120 115 113 113 112 109 111 111 111 110 108 106 105 102 101 102 109 112 107 102 101 106 106 106 104 109 106 103 99 103 103 104 101 133 102 105
139 144 146 133 125 125 120 122 116 118 116 116 114 115 114 116 119 117 112 110 107 106 102 104 103 103 102 103 107 108 108 109 107 105 103 106 101 99 104 99 86 93 93
133 151 142 133 131 132 129 128 126 131 126 122 121 120 119 121 119 114 111 108 109 109 108 107 106 103 105 108 109 110 112 117 114 103 108 101 101 109 108 109 103 100 98
128 145 142 133 133 133 135 136 137 136 130 126 121 120 117 115 116 116 115 110 108 105 102 100 105 106 111 114 104 106 107 116 114 120 113 118 111 105 98 103 113 112 111
136 142 139 137 135 133 134 140 143 139 134 129 122 118 115 115 118 121 118 114 110 113 112 109 110 115 117 112 106 107 101 104 115 131 108 98 98 113 117 114 123 125 115
137 136 136 141 137 138 137 141 143 143 138 136 130 124 120 118 108 107 106 104 115 109 121 121 124 123 124 123 120 123 100 104 130 111 108 109 107 103 123 125 117 123 126
140 137 140 141 138 137 142 142 140 144 137 136 131 126 119 113 111 105 101 96 98 121 122 133 128 130 132 138 140 144 147 142 151 132 112 115 103 123 122 127 127 134 147
140 141 141 134 136 141 148 146 143 144 145 141 141 135 129 123 122 124 125 123 122 116 135 127 133 141 149 151 166 151 310 248 195 147 142 151 113 157 155 167 165 169 160
136 140 142 147 145 148 149 149 148 149 144 145 140 133 128 127 127 126 137 136 128 120 142 138 149 157 173 175 208 208 9 137 184 158 172 169 163 221 155 166 191 210 197
144 139 140 143 147 151 147 147 154 150 152 150 148 144 143 140 151 161 139 139 132 156 147 154 165 175 223 230 236 279 14 204 213 176 206 175 184 192 188 195 211 227 230
149 147 149 147 146 149 151 151 153 161 164 165 164 167 170 190 194 181 121 176 178 170 172 187 194 206 236 240 259 267 291 342 206 223 220 141 206 210 215 210 217 220 235
159 158 159 160 155 164 158 164 165 169 183 188 190 194 205 205 226 278 287 268 278 277 213 200 230 221 233 246 230 232 253 280 222 233 247 182 216 221 227 218 218 229 232
167 165 171 170 163 167 163 172 177 184 183 188 198 201 210 218 238 246 255 263 276 304 305 237 238 243 243 239 243 248 261 259 264 262 267 202 222 222 228 229 223 227 233
178 182 177 181 179 182 174 179 183 193 195 198 207 207 211 220 224 249 253 260 264 270 259 285 247 266 254 250 250 254 251 258 265 273 269 223 229 225 227 235 233 241 241
183 184 188 189 190 193 192 190 196 202 204 212 213 210 219 230 236 243 251 259 259 258 267 248 262 268 264 249 251 251 260 261 269 280 273 231 227 224 225 231 234 239 243
190 190 187 195 197 196 201 204 207 210 210 218 221 223 221 233 235 246 255 264 262 264 250 254 229 263 263 260 250 252 259 265 270 284 277 230 218 217 223 228 232 235 241
193 192 193 198 201 202 203 207 213 218 221 229 234 231 228 228 234 249 252 256 260 270 261 275 256 239 251 253 255 258 256 260 268 271 270 269 218 214 228 224 232 233 236
194 197 191 197 201 207 208 210 217 219 225 229 233 236 233 232 233 237 249 256 258 261 262 253 260 251 253 250 259 256 259 266 265 260 258 264 250 257 213 224 232 238 241
200 197 199 200 202 209 214 219 223 228 232 235 237 241 241 235 234 235 241 246 248 253 254 232 259 251 254 249 251 257 258 259 262 261 257 255 253 254 248 210 220 235 244
202 203 205 201 206 210 214 222 235 243 246 248 246 245 248 247 241 235 238 241 233 245 250 231 239 253 253 257 264 262 263 259 256 253 258 256 252 250 247 244 236 236 234
200 201 205 203 203 198 202 213 228 227 228 238 241 241 235 241 249 244 244 245 238 239 240 223 239 247 255 249 262 260 254 251 249 245 244 249 251 247 250 245 240 246 244
203 212 212 215 210 207 208 214 229 239 230 244 241 240 240 237 234 234 241 240 239 242 240 239 232 240 244 238 242 268 274 264 238 242 234 237 241 243 243 239 244 243 249
204 215 219 223 220 219 221 222 230 246 251 250 244 248 244 238 234 226 231 235 233 239 241 233 233 228 236 227 228 228 253 253 303 231 237 245 249 240 244 243 240 241 244
211 223 229 229 232 229 222 235 238 249 259 259 272 277 270 260 253 239 238 234 232 232 233 235 229 227 230 234 223 233 246 266 261 277 204 237 236 242 247 250 245 241 243
199 219 228 220 217 222 226 238 250 259 272 281 273 276 270 272 261 259 253 250 241 238 237 233 222 230 228 233 227 225 228 237 238 258 266 260 245 253 245 233 239 240 234
133 131 126 129 113 178 223 245 258 275 286 290 290 287 278 275 267 257 261 251 249 245 239 233 238 227 226 228 232 227 220 223 221 227 243 256 265 267 264 253 244 244 252